This is the latest recevied weather packets stored in our database for station/object K5KVN. If no packets are shown the sender has not sent any weather packets the latest 10 day(s).
| Time | Temp. | Humidity | Pressure | Rain* | Wind** | Luminosity | Snow |
|---|---|---|---|---|---|---|---|
| 1778201568 | 16.67° C | 61% | 1015 hPa | 0 mm | - | - | - |
| 1778200968 | 17.22° C | 60% | 1015 hPa | 0 mm | - | - | - |
| 1778200369 | 17.22° C | 60% | 1015.1 hPa | 0 mm | - | - | - |
| 1778199768 | 17.78° C | 59% | 1015.1 hPa | 0 mm | - | - | - |
| 1778199226 | 17.78° C | 58% | 1015.1 hPa | 0 mm | - | - | - |
| 1778198621 | 18.33° C | 56% | 1015.2 hPa | 0 mm | - | - | - |
| 1778197962 | 18.33° C | 56% | 1015.3 hPa | 0 mm | - | - | - |
| 1778197359 | 18.89° C | 56% | 1015.2 hPa | 0 mm | - | - | - |
| 1778196762 | 18.89° C | 56% | 1015.1 hPa | 0 mm | - | - | - |
| 1778196159 | 18.89° C | 53% | 1015.2 hPa | 0 mm | - | - | - |
| 1778195559 | 19.44° C | 54% | 1015.2 hPa | 0 mm | - | - | - |
| 1778194959 | 19.44° C | 53% | 1015.3 hPa | 0 mm | - | - | - |
| 1778194361 | 19.44° C | 50% | 1015.4 hPa | 0 mm | - | - | - |
| 1778193816 | 19.44° C | 49% | 1015.5 hPa | 0 mm | - | - | - |
| 1778193157 | 20° C | 52% | 1015.6 hPa | 0 mm | - | - | - |
| 1778192557 | 20° C | 53% | 1015.6 hPa | 0 mm | - | - | - |
| 1778191953 | 20.56° C | 46% | 1015.8 hPa | 0 mm | - | - | - |
| 1778191353 | 20.56° C | 53% | 1015.7 hPa | 0 mm | - | - | - |
| 1778190752 | 20.56° C | 48% | 1015.8 hPa | 0 mm | - | - | - |
| 1778190153 | 21.11° C | 51% | 1015.9 hPa | 0 mm | - | - | - |
| 1778189552 | 20.56° C | 53% | 1016 hPa | 0 mm | - | - | - |
| 1778188951 | 20.56° C | 48% | 1016 hPa | 0 mm | - | - | - |
| 1778188412 | 20.56° C | 48% | 1016.2 hPa | 0 mm | - | - | - |
| 1778187751 | 20.56° C | 50% | 1016.3 hPa | 0 mm | - | - | - |
| 1778187153 | 20.56° C | 51% | 1016.5 hPa | 0 mm | - | - | - |
* Rain latest hour (hover to see other rain measurements)
** Current wind speed in m/s (hover to see current wind gust speed)